Theta_e
351 352 352 353 353 352 352 351 350 351 351 350 350 351 351 350 351 350 350 351 351 351 351 349 344 342 341 340 339 338 340 341 341 342 342 342 346 348 349 349 347 346 347 347 347 347 346 343 341 340 340 342 343 344 344 345 345 344 344 343 344 344 343 343 342 341 339 339 339 340 341 341 341 342 341 341 340 339 338 337 337 337 337 338 339
352 353 353 353 352 352 352 351 349 351 351 349 349 350 350 350 350 350 349 350 351 350 349 345 341 340 340 339 339 337 338 339 340 340 340 340 344 348 348 348 348 347 347 348 347 347 346 345 344 342 341 341 343 343 344 345 346 345 345 345 344 344 343 342 342 342 341 340 338 338 338 339 340 341 341 341 340 339 338 337 336 335 333 334 334
354 355 354 354 352 351 352 351 349 350 351 349 349 350 350 350 352 351 350 350 350 349 346 342 340 340 339 340 340 340 339 339 338 338 339 339 341 346 349 348 348 349 347 347 347 347 346 346 345 345 343 343 346 346 344 344 345 345 346 346 347 346 345 344 343 342 342 341 340 338 337 337 338 339 339 340 341 340 339 338 336 334 332 332 331
358 356 354 354 353 351 351 352 352 352 352 350 350 351 350 351 352 352 351 350 350 346 343 341 341 340 340 340 341 341 341 340 339 337 337 338 338 342 346 347 349 350 349 347 346 346 346 346 346 345 344 345 348 348 346 345 345 345 345 345 345 346 347 346 345 344 343 343 342 341 339 338 338 337 337 338 339 340 340 339 338 337 335 333 331
360 358 355 354 354 354 352 352 352 352 352 351 351 352 351 350 350 351 351 349 346 342 341 341 340 341 341 341 342 342 341 341 340 339 338 337 337 339 341 344 349 351 349 347 346 345 345 346 347 346 347 348 349 348 347 347 347 348 347 344 343 345 346 346 346 346 345 345 343 342 341 340 339 338 338 337 337 338 338 340 340 340 339 338 335
362 359 357 354 353 355 354 353 353 353 352 351 352 352 350 350 348 348 349 346 343 342 342 342 341 343 342 342 342 341 341 341 340 339 339 339 338 339 339 340 344 347 347 346 346 345 344 344 345 347 348 349 349 349 349 349 349 348 346 344 344 345 344 343 345 346 346 346 345 344 343 342 341 340 340 339 338 337 337 337 339 340 340 340 339
362 361 358 356 353 354 353 352 355 354 351 351 353 353 351 349 348 347 347 344 343 343 342 342 343 343 343 342 342 341 341 341 340 340 340 341 340 340 340 340 340 342 344 345 344 343 342 340 342 344 347 349 349 349 350 349 350 348 344 344 346 346 345 343 343 345 345 346 346 346 347 345 343 342 342 341 340 339 337 336 336 337 338 340 340
360 358 357 357 354 353 353 353 354 354 351 351 353 353 351 348 347 347 345 344 344 344 342 342 343 343 343 342 341 341 341 340 340 340 340 341 341 341 341 342 342 342 342 342 342 343 343 342 342 342 345 348 348 348 349 348 348 347 345 345 347 346 346 345 345 345 345 345 345 346 347 347 346 345 344 343 342 341 339 337 335 334 335 336 338
357 354 355 358 356 354 354 355 355 351 351 352 352 351 350 347 347 346 345 345 345 343 342 341 341 342 342 341 341 341 341 340 340 340 341 341 342 341 342 343 344 345 345 343 343 344 344 344 344 342 341 344 346 347 348 348 347 347 347 347 348 348 347 347 347 347 347 346 345 344 344 345 345 345 345 345 344 343 342 341 339 337 335 334 334
358 353 354 357 357 355 354 355 355 353 353 354 351 349 348 346 346 347 346 346 344 343 341 340 341 341 340 340 342 342 341 341 341 340 341 341 341 340 341 342 342 345 347 346 346 345 345 346 347 346 343 342 345 346 346 346 346 347 348 348 349 349 348 348 347 347 346 345 344 344 344 343 344 345 345 345 344 343 343 343 342 342 340 338 335
362 354 353 356 357 355 355 356 356 354 353 352 349 347 346 346 346 346 346 345 343 342 341 341 341 340 340 340 342 342 342 341 341 341 340 339 339 338 339 340 341 342 343 344 345 345 347 348 348 348 348 346 346 347 347 347 347 347 348 348 348 347 347 347 347 347 346 345 346 346 346 345 345 345 345 345 345 344 343 343 343 342 343 342 340
360 355 355 357 358 356 354 356 356 353 350 348 347 346 346 345 344 343 343 342 342 341 341 342 340 340 340 341 341 342 342 341 340 340 339 338 337 336 336 338 340 340 340 341 341 343 345 346 346 347 348 346 346 346 345 346 347 348 348 348 348 346 346 346 347 347 347 347 347 347 347 346 346 346 346 346 346 345 345 344 344 343 343 343 343
355 356 358 359 358 357 356 355 354 350 348 346 345 345 344 342 341 342 341 341 341 341 342 341 341 342 341 340 341 341 341 341 340 338 336 335 335 335 336 336 337 338 339 339 340 341 341 342 344 345 346 344 345 346 345 346 346 346 345 346 347 346 346 346 346 347 347 347 347 347 347 347 347 347 347 347 347 346 346 346 345 345 344 343 344
356 357 360 360 358 356 356 354 350 347 345 344 344 345 344 343 343 342 342 341 341 340 341 340 341 341 339 338 340 341 341 339 338 336 333 333 333 333 335 334 334 335 335 336 338 339 339 340 341 343 344 343 343 345 345 346 345 342 342 342 345 345 346 346 346 346 347 347 348 347 347 347 347 347 347 348 347 347 347 347 346 345 344 344 344
360 358 356 356 354 352 352 351 348 345 345 345 344 344 344 344 343 342 341 341 340 341 341 341 340 340 339 340 339 339 342 340 336 334 332 332 331 331 332 332 333 333 333 333 334 336 336 337 340 341 343 342 342 342 343 344 342 339 339 341 342 343 343 345 346 346 346 346 346 347 347 347 347 347 347 348 348 348 347 347 346 345 345 344 344
358 356 353 352 351 350 350 349 348 346 345 345 342 341 342 343 343 342 341 339 339 340 341 341 340 339 340 341 337 334 341 342 337 335 333 331 330 330 330 331 332 332 332 332 332 334 335 335 337 338 339 339 339 340 341 342 340 339 339 337 337 337 338 341 343 345 345 346 346 346 346 346 347 347 347 347 347 347 347 347 347 346 346 345 345
355 354 352 351 350 350 349 348 348 346 345 343 340 340 341 341 343 343 342 340 339 338 339 340 340 339 340 341 339 339 341 337 335 338 336 332 330 329 329 330 331 331 332 332 331 331 332 334 334 335 335 335 336 337 337 338 339 339 335 328 326 328 329 333 337 340 342 344 344 345 345 345 346 346 346 347 347 347 347 347 347 346 346 346 347
354 353 351 350 351 350 348 347 347 346 344 341 340 340 340 340 342 342 342 341 340 338 337 339 340 340 340 341 340 342 342 337 337 340 337 332 331 330 329 329 329 330 331 331 331 330 329 331 332 332 332 332 333 334 334 335 334 329 323 319 319 320 322 325 328 331 334 336 338 340 341 342 344 345 346 346 346 347 347 347 347 347 347 347 347
352 352 351 351 351 350 349 348 346 345 344 342 340 339 340 341 341 341 342 342 341 339 336 337 340 341 340 340 340 339 339 338 338 339 338 336 333 328 328 328 328 329 329 329 330 330 329 329 330 330 330 330 330 331 332 333 333 327 319 317 318 318 318 319 320 323 324 325 327 330 332 334 336 339 341 343 345 346 346 346 347 347 347 347 347
351 352 352 351 351 350 349 348 346 344 342 341 340 339 340 342 341 342 343 342 342 341 339 338 338 339 340 338 339 338 337 337 336 335 336 336 334 330 328 328 328 327 328 327 328 330 331 330 329 328 329 329 328 328 329 331 334 331 322 316 317 317 317 317 317 317 318 318 319 320 322 324 326 329 332 336 340 343 344 345 345 345 346 346 347
352 352 352 351 350 350 350 349 347 344 341 339 339 339 340 342 342 343 343 343 342 341 341 340 338 338 339 339 338 337 336 336 335 335 334 333 332 331 329 329 330 330 329 328 328 329 331 331 330 329 328 329 328 328 328 329 331 332 323 316 316 317 316 317 316 316 316 316 316 317 317 318 319 320 322 326 329 333 337 339 342 343 344 345 346
353 352 352 351 350 350 350 348 345 342 339 338 338 339 340 340 341 342 342 342 342 341 341 340 339 339 339 339 339 337 336 335 336 335 334 333 333 331 329 330 332 331 330 329 330 329 330 330 331 331 330 329 329 328 328 328 329 329 324 318 318 318 317 317 316 316 316 316 316 316 316 316 316 317 317 318 321 323 326 330 334 337 340 343 345
352 351 351 352 351 350 348 344 343 341 338 339 340 339 338 338 339 341 341 341 341 341 340 339 339 339 338 338 338 337 335 335 334 334 334 335 335 333 331 331 331 331 330 331 333 332 331 331 330 331 331 330 330 329 329 328 328 328 324 322 322 321 320 319 317 316 316 316 316 316 316 316 316 316 316 316 317 318 319 321 324 327 331 334 339
351 351 350 350 350 348 345 342 342 341 339 339 339 338 337 337 338 340 340 340 340 341 340 339 338 339 338 337 336 335 334 334 333 334 334 335 336 336 334 333 333 333 332 332 333 333 331 331 331 330 331 331 330 330 330 330 330 329 328 327 326 325 324 323 321 318 316 316 316 316 316 316 316 316 317 317 317 317 317 317 318 319 322 325 328
352 350 348 349 349 346 344 343 343 342 340 340 340 339 338 337 339 339 339 340 340 340 340 338 338 337 336 336 335 334 333 333 333 333 334 335 336 337 336 334 334 334 333 333 333 333 333 332 332 331 331 332 332 331 331 331 331 331 330 330 329 328 327 326 325 322 319 316 316 316 316 316 316 317 317 317 317 317 317 317 317 317 317 318 320
351 350 348 348 349 346 344 344 344 342 341 341 341 340 339 339 339 339 339 339 339 340 339 337 337 337 336 336 336 334 333 334 334 334 334 335 336 336 336 335 334 334 334 334 333 333 333 333 332 332 332 333 332 332 332 331 331 331 331 331 330 329 329 329 329 327 325 321 317 316 316 316 316 316 317 317 317 317 317 317 317 317 317 317 317
351 349 347 347 346 346 346 345 344 343 342 342 341 340 339 339 340 339 338 338 338 339 338 337 337 337 336 337 337 335 334 335 334 334 335 335 335 335 336 336 336 335 334 334 333 333 332 332 331 332 332 333 333 333 333 332 331 331 330 330 330 331 331 331 331 330 329 327 321 317 316 316 317 317 317 317 317 317 317 317 317 317 317 318 318
351 350 348 347 346 346 346 345 343 343 343 342 340 339 339 339 340 340 338 337 338 338 338 337 337 336 336 337 336 336 336 336 336 335 336 336 336 336 335 335 336 336 336 336 334 333 332 330 330 330 331 332 333 333 333 333 332 331 331 331 331 331 331 331 331 331 331 329 326 321 318 316 316 317 317 317 317 318 318 318 318 317 317 317 317
352 351 349 348 346 346 346 344 343 343 343 342 340 339 340 340 340 340 339 336 336 337 338 338 337 336 336 335 335 336 336 336 336 336 336 337 338 338 338 337 336 336 336 336 336 334 332 331 330 330 330 331 332 332 332 333 333 332 332 332 331 331 330 330 331 331 331 330 327 323 320 318 317 317 317 317 317 318 318 318 318 318 318 317 317
353 351 349 348 347 346 345 343 342 343 342 342 341 340 340 341 340 339 339 337 337 337 337 338 338 337 337 335 335 335 335 336 335 335 336 337 338 338 338 338 338 338 337 336 336 334 332 332 331 330 331 331 331 331 331 332 332 331 331 331 332 332 332 330 330 330 330 329 326 323 321 319 317 317 317 317 318 318 318 319 319 319 318 318 317
353 352 349 348 347 345 343 342 343 343 342 342 341 340 340 340 340 339 338 338 337 337 337 338 337 337 337 336 335 336 336 336 336 335 336 336 336 335 336 337 337 338 338 337 336 335 333 333 332 331 331 331 331 331 332 332 332 331 331 332 332 333 333 332 331 330 329 329 328 327 325 322 320 319 319 319 319 319 320 320 320 319 318 318 318
354 352 349 348 346 344 342 342 343 343 343 342 341 341 340 340 339 339 338 337 337 337 337 337 336 336 336 336 336 337 336 336 336 336 335 335 334 334 334 335 336 337 338 338 337 335 334 332 332 331 330 330 331 332 332 332 332 332 331 332 332 333 334 333 333 332 331 330 330 330 329 328 327 324 323 323 322 322 322 321 321 320 319 318 318
354 351 348 346 346 344 342 342 342 343 343 342 341 341 340 340 339 339 338 338 338 338 338 337 336 335 336 336 337 337 336 336 336 335 334 334 333 333 333 334 335 335 335 335 335 335 334 333 332 331 330 330 330 331 332 332 332 331 331 332 332 333 334 333 333 332 332 331 331 331 331 330 329 327 327 327 326 325 324 323 321 321 320 319 319
353 350 348 345 345 344 342 342 342 342 342 342 341 341 340 340 340 340 339 339 339 338 338 338 337 336 336 337 337 336 336 335 335 335 334 333 332 332 332 332 333 333 333 333 333 334 334 333 332 331 331 330 330 331 332 332 332 332 332 332 332 333 333 333 332 332 331 331 331 331 330 329 329 328 328 327 326 326 325 324 322 321 321 320 319
352 351 348 345 344 343 343 343 343 343 343 343 342 342 341 340 340 340 340 340 339 338 338 338 337 336 337 337 337 336 335 335 335 335 334 333 333 333 334 334 333 334 334 333 333 334 334 334 333 333 332 331 331 331 331 332 332 332 332 332 331 331 331 331 331 331 331 330 330 329 328 328 328 327 326 325 325 325 325 325 324 323 322 322 321
352 351 348 345 344 343 343 344 343 343 343 343 343 342 340 339 340 341 340 340 339 338 338 337 337 337 337 337 336 335 335 334 334 334 334 333 334 334 334 334 335 334 334 334 334 334 334 334 334 334 333 333 333 332 331 331 331 332 332 332 331 330 330 330 330 330 330 329 328 328 327 326 326 325 325 325 325 325 325 325 324 324 323 323 323
352 351 348 346 344 344 345 344 343 343 343 343 343 342 339 338 339 341 340 339 339 338 337 337 337 337 337 337 336 335 335 334 334 334 333 333 333 334 334 334 334 334 334 334 334 334 335 335 335 335 334 334 334 332 330 330 330 330 330 331 331 330 330 330 330 329 329 328 327 328 327 327 326 326 325 325 325 325 324 324 324 323 323 324 324
352 351 348 345 345 347 345 342 342 343 343 342 342 340 337 338 339 340 339 339 338 338 337 337 336 337 337 337 336 336 335 334 334 333 332 332 332 333 334 334 335 335 335 335 335 334 334 334 335 335 335 335 333 330 329 329 329 330 330 331 331 330 329 329 329 329 329 328 328 328 328 328 327 327 326 325 325 324 324 324 323 324 324 324 324
351 350 347 345 346 348 343 338 342 345 342 339 340 338 336 337 339 340 339 339 338 337 337 337 337 336 336 336 335 335 335 334 333 333 332 331 332 333 334 336 336 336 335 334 333 333 333 333 334 334 334 333 331 329 328 328 329 329 330 331 330 328 328 328 329 330 330 329 329 328 328 328 327 327 326 325 325 324 324 324 324 324 324 324 324
350 349 347 346 347 347 344 342 344 346 340 337 339 339 336 337 339 340 341 339 338 337 337 337 337 336 335 335 334 334 334 334 333 332 332 332 333 334 335 336 336 335 334 333 333 333 332 332 332 332 332 331 330 330 329 328 328 328 328 329 328 328 328 329 330 329 329 329 329 329 328 328 327 327 326 325 325 325 324 325 325 324 325 324 324
349 348 348 348 348 346 345 344 344 341 338 337 339 337 334 337 340 340 340 340 339 338 338 338 338 336 336 335 335 334 333 332 332 332 332 333 334 333 332 333 333 334 334 334 333 333 332 331 331 331 330 329 329 329 329 328 328 328 327 327 327 328 328 329 329 328 328 328 328 328 328 328 327 327 326 325 325 325 325 325 325 325 325 325 325
349 347 348 348 346 344 344 344 342 338 336 335 333 330 332 338 341 340 340 339 339 339 339 338 338 337 336 336 335 334 333 332 332 332 332 332 332 331 329 329 330 332 334 334 333 332 332 331 330 330 329 328 328 328 328 328 328 327 326 327 328 329 329 329 328 328 327 327 328 328 328 328 327 327 326 325 325 325 325 325 325 325 325 325 325
349 347 346 346 346 344 344 343 340 337 336 334 330 328 332 338 341 340 339 339 338 340 339 339 338 337 337 336 335 336 336 335 333 334 334 334 333 332 331 331 331 329 330 330 331 331 331 330 329 329 329 329 329 328 327 327 327 327 327 327 328 329 329 328 328 328 327 327 327 327 327 326 326 325 325 325 324 324 324 324 325 325 324 324 324
349 348 347 347 345 342 341 339 336 337 336 334 332 329 330 336 340 340 339 339 339 339 338 338 337 337 336 336 337 338 337 334 333 335 336 335 335 335 334 333 334 331 328 326 328 329 330 330 329 329 329 329 329 329 329 328 328 328 328 328 328 328 328 328 328 328 327 326 326 326 325 325 324 324 324 323 323 323 323 323 323 323 323 323 323
351 351 349 346 343 340 340 338 335 336 335 334 333 330 327 332 338 338 337 337 337 337 337 336 335 336 337 337 338 339 337 334 335 336 337 337 337 336 334 334 335 334 331 329 329 329 329 329 330 329 329 330 330 330 330 329 328 328 328 328 327 326 327 327 327 327 326 325 324 324 324 323 323 323 323 322 322 322 322 322 322 321 321 321 322
353 352 349 345 343 340 339 337 335 335 335 335 334 331 327 329 333 334 334 336 337 335 335 335 334 336 339 338 338 339 338 338 337 336 336 338 337 335 334 334 334 334 333 332 331 330 330 330 330 330 329 330 330 329 328 327 326 326 326 326 325 325 325 325 325 324 323 323 322 323 323 324 323 322 322 321 321 321 321 321 320 319 319 320 321
352 350 347 344 343 340 338 337 336 336 337 336 336 335 331 329 330 331 333 337 338 336 336 336 334 337 341 340 339 338 337 337 337 335 334 337 337 336 334 334 332 332 332 330 330 330 330 329 329 328 328 327 327 326 325 323 323 323 324 324 323 323 323 323 323 322 321 321 321 322 323 322 321 320 320 320 320 320 320 319 319 319 319 321 322
350 348 346 344 342 340 338 338 338 338 338 337 338 337 335 332 330 331 335 339 339 337 337 337 337 340 342 340 339 338 336 337 337 333 331 334 337 336 334 332 331 331 331 330 329 328 328 327 326 325 325 324 323 322 321 320 320 321 322 322 321 321 321 321 321 320 320 320 319 320 320 320 319 319 319 319 319 319 319 319 319 320 321 322 322
349 347 345 343 341 341 339 339 339 339 338 338 338 338 337 334 332 334 338 340 340 340 339 340 341 341 339 337 337 337 335 335 334 330 329 332 336 335 333 331 330 330 330 330 328 327 326 325 324 323 322 321 320 320 320 320 320 320 321 322 322 320 319 320 320 319 319 318 318 319 319 318 318 318 318 318 319 318 318 319 320 322 322 322 322
349 347 344 342 341 340 339 338 338 338 338 339 339 338 337 335 334 338 340 341 341 342 341 341 341 339 336 335 335 333 332 331 331 329 329 333 335 333 331 330 330 330 329 328 327 326 325 325 325 325 323 322 321 321 320 320 320 320 321 322 322 320 320 321 321 319 318 318 318 318 318 318 318 318 318 317 317 317 319 320 322 323 322 322 321
349 347 345 343 341 339 338 337 337 338 338 339 339 338 338 336 335 338 341 341 342 342 341 341 340 338 336 335 333 330 329 329 329 329 330 333 334 331 328 328 328 328 328 327 327 327 325 325 324 324 323 322 321 321 320 320 320 320 320 321 322 322 322 321 319 318 317 317 317 317 317 316 316 315 316 316 317 319 321 322 322 322 323 322 322
Wind_Speed
5 4 5 5 5 5 5 5 5 4 3 5 6 5 6 5 5 7 7 7 7 7 7 7 8 7 6 7 8 8 6 5 6 6 7 6 6 7 8 8 6 5 5 6 6 8 10 12 13 13 14 14 14 14 13 13 13 12 12 12 12 12 12 12 12 12 12 12 12 12 13 13 13 13 12 12 12 11 11 11 10 10 10 10 9
4 3 4 4 5 6 6 6 5 4 5 6 6 6 7 6 6 8 7 7 7 6 7 8 7 6 5 7 8 8 7 6 6 5 6 5 5 6 7 8 7 5 4 5 6 7 8 10 11 13 14 14 15 15 14 14 14 13 12 12 12 13 13 13 13 12 12 13 13 13 13 13 13 13 13 13 13 12 12 12 12 11 11 11 11
3 2 3 5 6 7 6 6 4 5 6 5 5 6 7 7 6 7 7 6 6 6 7 8 7 5 6 6 7 7 7 7 6 6 6 4 4 4 6 9 8 5 4 5 5 6 7 7 9 11 13 14 14 14 15 14 14 14 13 12 12 13 14 14 13 13 14 14 14 14 14 14 14 14 14 14 14 14 14 13 13 13 12 12 12
4 4 5 5 7 7 6 5 6 6 6 5 5 5 6 7 6 7 7 5 6 6 7 7 6 6 6 6 6 7 7 7 6 6 5 4 5 4 5 9 6 4 5 5 5 5 6 6 7 9 11 12 13 14 14 14 14 13 13 14 15 16 15 14 14 15 15 15 15 15 15 15 15 15 15 15 15 15 15 15 14 14 13 13 13
4 5 6 7 7 8 7 6 7 7 6 6 6 7 8 7 7 7 6 5 6 7 6 7 6 5 6 7 7 7 6 7 6 5 5 4 5 3 4 6 4 5 7 6 6 6 6 6 7 8 10 11 12 13 13 14 13 12 13 17 19 19 16 15 15 16 16 16 16 16 16 16 16 16 16 16 16 16 16 16 16 16 15 14 13
5 5 6 7 7 8 8 8 8 8 8 8 8 8 8 7 8 7 5 5 7 6 6 6 6 5 5 6 7 7 7 6 5 5 5 5 5 4 4 5 4 5 7 7 7 6 5 6 7 8 9 9 10 11 12 12 10 11 15 20 20 18 18 18 18 17 16 16 16 16 17 17 17 17 17 17 17 17 17 17 17 17 17 16 15
6 6 6 7 8 9 9 9 8 8 8 8 7 8 7 7 7 7 4 5 6 6 6 5 5 6 5 6 6 6 7 6 4 5 4 4 5 4 4 5 4 4 5 6 8 8 7 5 6 7 8 8 9 10 10 10 9 12 17 20 18 17 18 20 19 18 17 17 16 16 17 17 18 17 17 18 18 18 18 18 17 18 18 18 17
8 8 8 8 9 9 8 7 7 8 8 7 6 6 7 6 5 5 5 5 6 6 6 5 5 6 5 6 6 6 7 5 4 4 4 4 5 4 3 4 5 6 4 4 7 8 6 5 5 7 8 8 8 8 8 8 10 13 16 17 17 17 18 19 19 18 17 18 18 18 18 18 18 18 18 18 18 19 19 19 18 18 18 19 19
11 10 9 8 9 9 7 6 6 8 7 7 8 6 5 5 4 4 4 4 6 6 6 5 5 6 6 6 5 5 5 5 5 4 3 3 3 3 3 3 4 5 5 3 4 4 3 3 4 5 7 8 7 6 6 6 8 11 13 15 15 16 16 16 15 16 17 18 20 21 21 21 20 20 19 19 19 19 19 19 19 19 19 19 19
12 10 9 8 8 8 7 6 6 7 6 7 8 5 4 5 4 4 4 4 5 6 6 6 6 6 7 5 4 4 4 4 4 4 3 2 2 2 1 3 4 5 5 5 4 2 2 3 3 3 5 5 6 5 5 6 7 8 10 12 13 13 14 14 13 15 18 20 21 22 22 23 23 22 21 21 21 21 21 21 21 20 19 19 19
12 9 7 7 8 8 8 7 7 8 7 6 5 3 3 3 4 4 4 5 5 5 5 6 6 5 6 5 2 2 3 3 3 3 4 2 3 4 1 4 4 5 6 6 6 5 4 4 3 1 1 2 2 2 3 5 6 7 8 9 10 11 12 14 15 16 18 20 20 20 21 22 23 23 23 22 23 23 22 22 22 22 21 20 19
11 8 7 8 8 8 8 7 7 6 4 4 3 1 1 2 4 4 4 5 4 4 4 4 6 5 4 3 0 1 1 2 3 1 2 2 2 4 4 4 4 4 5 5 6 6 6 6 4 4 4 2 2 4 3 3 5 6 6 7 9 11 13 13 14 15 17 17 18 19 21 22 22 23 23 23 23 23 23 23 24 24 23 23 22
9 8 8 8 7 6 6 5 5 4 2 2 2 1 2 2 3 3 4 4 4 4 3 3 6 4 3 3 3 2 1 1 3 2 2 2 2 3 4 4 5 5 4 4 5 5 6 6 5 5 6 5 3 4 3 2 1 2 4 5 7 9 11 11 12 13 15 16 16 18 19 20 21 22 23 23 23 23 23 23 24 24 24 25 24
8 8 7 7 6 5 4 4 4 4 2 1 0 1 2 1 2 3 3 3 3 4 2 3 6 4 2 3 3 4 2 3 3 3 1 2 1 2 4 5 5 5 4 4 5 5 6 6 5 5 6 5 3 2 3 4 2 2 3 3 4 5 6 7 8 10 13 14 15 16 18 19 20 22 22 22 23 24 24 24 24 25 25 25 25
8 8 7 6 5 4 5 5 5 4 2 2 1 1 2 2 3 3 3 4 5 3 1 4 6 2 1 3 3 3 3 4 3 2 1 1 1 2 4 4 5 5 5 5 5 5 6 6 6 6 6 5 4 3 4 5 2 3 2 2 3 4 5 5 6 6 9 10 11 13 15 17 19 20 21 21 21 22 24 25 25 25 25 26 26
7 7 6 6 5 5 6 6 5 4 3 2 1 2 3 3 4 3 3 6 5 5 2 2 4 4 2 3 4 2 2 3 4 2 2 2 2 3 3 2 4 5 5 5 5 4 5 5 5 5 6 5 5 4 4 4 3 4 4 4 4 4 5 5 6 6 6 6 7 10 13 15 16 17 18 19 20 20 21 23 23 23 24 24 25
8 7 7 6 6 7 7 7 6 4 3 2 2 3 4 4 4 4 4 5 4 2 2 2 1 3 3 2 3 2 0 0 2 1 5 4 3 4 1 0 3 3 3 3 3 3 3 4 4 4 5 5 5 4 4 4 3 3 5 5 4 3 3 5 7 7 7 7 7 9 11 13 15 15 15 16 17 18 19 19 21 22 23 23 23
8 7 7 7 7 8 7 6 5 4 4 3 3 4 5 5 4 4 3 2 3 3 2 2 2 1 3 1 1 2 2 2 1 1 4 6 1 2 4 3 2 1 1 1 1 2 3 3 3 3 3 3 3 3 4 4 3 2 3 5 5 4 2 3 5 7 8 8 8 9 10 11 12 13 14 14 15 16 17 18 19 20 22 23 23
8 8 7 8 8 8 8 6 5 5 4 3 4 5 4 4 3 3 2 1 2 3 4 2 3 1 2 1 1 1 3 3 3 1 2 3 3 3 5 5 2 3 1 1 1 2 2 2 2 2 1 2 2 2 2 3 2 3 4 4 4 4 4 2 2 4 5 6 7 8 10 11 11 12 13 13 14 15 16 16 17 18 20 21 22
8 8 8 8 8 8 8 7 6 5 4 4 5 5 2 2 2 2 2 2 2 2 3 2 1 2 2 1 1 1 1 1 2 4 2 3 2 4 3 3 2 3 1 4 2 1 1 1 1 2 2 0 0 1 0 2 2 2 3 3 3 3 3 2 2 3 4 5 5 6 7 9 10 11 12 13 14 15 16 16 16 17 18 19 21
8 8 8 8 8 8 8 7 6 5 5 5 6 5 3 3 3 2 3 3 2 2 2 3 4 0 4 1 0 0 2 1 1 2 2 3 2 1 2 2 3 3 1 3 3 3 3 2 1 3 3 2 2 2 1 1 2 2 2 4 4 3 3 3 3 4 4 5 6 6 6 7 8 9 10 12 13 15 17 18 18 18 18 18 18
8 8 8 9 9 8 7 7 7 6 5 5 5 5 4 4 4 4 4 3 3 2 2 2 3 2 2 1 1 1 2 2 3 2 0 2 3 4 5 5 3 2 2 5 4 5 6 5 4 5 4 3 3 3 3 3 3 4 4 4 4 5 5 5 5 5 6 6 7 7 7 8 9 9 9 10 12 13 15 17 19 20 20 19 18
8 8 9 10 9 9 8 8 7 6 5 5 5 5 5 6 5 5 4 4 4 3 2 3 2 2 2 3 3 3 2 2 4 2 2 4 3 5 7 8 8 6 6 6 4 5 7 6 7 7 5 5 5 5 5 4 5 8 8 7 6 7 7 8 8 7 7 7 7 8 8 9 9 10 11 11 11 13 14 15 17 19 20 21 21
8 9 10 11 10 10 9 8 7 7 7 6 6 6 5 5 6 5 5 5 4 4 3 3 3 3 4 4 4 4 1 1 4 3 2 5 5 5 7 8 8 8 8 8 7 7 8 8 8 7 6 6 6 7 7 7 9 11 10 9 10 11 11 11 11 10 9 9 8 8 8 8 9 10 11 12 12 13 14 15 16 17 18 20 21
10 11 11 12 12 12 11 9 8 8 8 7 7 6 5 4 5 6 5 5 5 4 4 4 3 3 4 3 3 5 3 3 5 5 4 3 3 5 7 7 8 8 9 10 9 9 9 9 9 8 6 6 6 8 9 9 11 12 9 9 12 15 16 14 12 11 11 11 11 9 8 7 8 8 9 10 12 12 14 15 16 17 18 19 20
12 12 12 13 13 13 11 10 10 9 9 8 7 7 6 5 5 6 6 5 5 4 4 4 4 3 4 3 4 5 5 4 5 6 6 5 5 6 6 7 9 10 10 9 9 8 9 8 8 9 7 6 7 8 9 9 10 11 11 11 14 16 16 15 14 14 13 13 14 13 10 9 8 8 8 8 9 11 12 13 15 16 18 19 21
13 13 12 12 13 12 12 11 11 10 10 9 8 7 7 6 6 6 6 6 5 5 5 5 4 4 4 4 5 6 5 5 6 7 7 7 6 7 7 6 7 9 8 8 9 9 9 9 8 8 6 7 8 8 9 11 11 12 14 15 15 15 15 16 16 16 17 17 16 16 15 13 11 10 9 9 9 10 11 11 13 14 16 17 19
13 13 12 12 13 12 12 12 12 12 11 10 9 8 8 8 7 6 7 7 6 6 6 6 6 6 6 6 6 7 6 6 7 7 7 7 7 7 7 7 6 6 6 7 7 8 10 10 8 7 5 6 8 8 10 11 12 13 15 16 15 14 15 16 17 18 20 20 18 18 18 17 16 15 14 13 12 12 12 13 13 14 14 15 16
13 13 12 13 13 13 12 12 12 13 12 11 10 9 8 8 8 8 8 8 7 7 7 7 7 7 7 7 7 7 7 7 7 7 7 7 7 8 8 8 7 6 5 5 5 7 10 11 11 9 6 5 7 9 10 12 12 13 14 15 16 15 15 16 17 19 20 22 22 21 21 21 21 20 19 18 17 17 17 17 17 16 16 15 15
13 14 14 14 14 14 13 12 13 13 12 12 11 10 9 9 9 9 9 8 7 8 8 8 8 8 8 7 7 7 7 7 7 7 7 7 7 8 8 8 7 7 7 6 6 7 9 10 12 12 10 9 10 11 12 12 12 13 14 15 16 16 16 17 19 20 21 23 23 22 21 22 22 23 22 22 22 21 21 20 20 19 19 18 17
15 16 16 16 16 16 15 13 14 14 14 13 12 11 11 10 10 10 10 9 9 8 8 8 8 8 8 8 8 8 7 7 7 7 7 8 8 7 7 8 8 9 9 8 6 9 11 11 12 14 14 13 12 12 13 12 12 13 14 15 16 17 18 20 21 21 21 21 20 20 21 21 21 22 22 22 22 23 23 23 22 22 21 20 19
18 19 19 19 19 18 18 17 17 17 16 15 14 14 14 13 12 11 10 10 10 10 9 9 9 8 8 9 8 8 8 8 7 7 8 9 8 7 7 7 8 8 8 8 7 10 15 15 14 15 15 14 13 13 14 14 13 14 14 14 15 16 17 18 19 19 19 20 21 21 22 22 22 22 22 23 24 25 26 26 26 25 23 22 22
19 20 21 20 20 20 20 19 20 20 20 20 18 18 18 16 15 13 11 10 10 10 9 9 9 9 9 9 10 10 9 9 8 8 9 9 8 7 7 7 8 8 8 9 9 11 15 16 16 16 16 15 15 14 15 15 14 14 14 14 15 16 16 16 17 18 18 19 20 21 21 21 22 22 24 27 28 29 29 28 28 27 26 25 24
22 23 23 22 22 21 21 20 21 22 24 23 20 19 18 17 16 15 12 11 10 10 10 10 10 10 10 11 11 10 10 10 9 9 9 9 8 8 8 8 9 9 8 10 11 12 14 16 16 17 17 16 16 15 14 15 15 14 15 15 15 15 16 16 16 17 17 18 19 21 22 22 23 24 27 29 29 29 30 29 28 28 27 26 25
24 25 25 25 24 24 23 22 23 22 22 22 20 19 19 18 17 16 13 12 11 11 11 11 11 11 11 12 11 10 10 10 10 10 10 9 8 8 9 8 9 10 10 11 12 13 15 16 16 16 17 17 17 16 15 15 15 15 16 16 16 16 16 16 17 17 17 18 19 22 23 23 24 26 27 27 28 28 30 30 29 28 27 27 26
25 27 27 27 27 26 24 23 23 22 22 21 20 20 20 19 18 17 15 13 12 12 12 12 12 12 12 12 11 11 10 11 11 10 10 9 9 9 9 9 9 10 11 12 12 13 15 16 16 17 17 17 17 17 16 16 16 16 16 17 17 18 18 18 18 19 19 20 21 22 24 25 27 28 28 27 27 27 29 31 32 31 29 28 28
26 28 28 29 29 28 26 25 24 24 24 23 22 22 21 20 19 18 17 15 14 14 13 13 13 13 13 12 12 11 11 12 11 11 10 10 10 10 10 10 10 11 12 12 13 14 15 17 18 18 18 17 16 17 17 17 17 17 17 18 18 18 18 19 20 20 20 21 22 23 25 26 28 29 29 27 26 27 30 33 35 34 32 31 32
27 28 28 29 29 29 28 27 25 26 25 24 23 23 22 21 20 19 17 16 15 14 15 15 15 14 13 13 13 12 13 13 12 12 11 11 10 11 11 11 11 11 12 12 13 14 16 17 18 18 17 17 16 17 17 18 19 19 19 18 18 18 18 19 20 19 19 20 21 21 23 25 26 27 28 28 29 31 34 36 36 35 33 34 35
29 28 28 29 29 29 30 28 27 27 26 25 24 24 23 22 21 19 18 17 16 15 15 15 15 14 13 13 14 13 13 14 14 13 12 11 11 12 12 11 11 11 12 14 15 16 16 17 17 17 17 17 17 17 18 18 19 20 19 18 18 19 19 19 19 19 19 20 21 22 24 25 26 27 29 30 32 34 34 34 34 33 34 36 38
29 29 29 30 30 29 30 29 28 28 27 25 23 24 25 23 21 20 19 17 16 15 15 15 15 14 13 14 14 14 14 15 15 14 12 12 12 12 11 11 12 13 15 15 15 16 16 17 17 17 17 18 18 17 17 18 18 19 19 19 20 21 20 19 19 20 21 22 22 23 23 23 25 26 28 28 30 32 32 32 33 34 36 38 39
30 29 30 31 30 30 29 28 28 28 27 26 25 27 27 24 22 21 19 18 16 15 15 15 15 14 14 14 14 14 15 14 14 14 14 14 14 14 15 15 15 16 15 15 15 16 16 17 17 17 17 18 18 17 16 16 17 19 20 21 21 20 20 20 21 21 21 22 22 22 22 22 23 25 26 27 28 29 30 31 33 34 35 35 35
29 29 29 29 29 30 29 28 29 27 26 27 29 30 28 24 22 21 19 18 17 15 15 14 14 14 13 13 14 14 14 14 13 14 15 16 17 19 20 21 20 19 17 15 15 16 17 17 17 18 18 18 18 18 17 18 19 21 21 20 19 19 19 19 19 19 19 20 21 22 21 21 22 25 26 26 27 28 30 31 31 31 31 31 32
27 26 27 27 27 28 28 28 29 27 26 28 30 31 30 26 23 21 20 19 17 16 15 14 13 13 13 13 13 12 12 12 14 15 15 16 17 20 23 24 24 23 21 18 17 17 17 17 18 18 18 17 17 17 19 20 20 20 19 18 17 18 18 17 16 17 17 18 20 22 23 23 23 26 27 27 28 29 30 31 31 31 33 34 35
23 23 24 25 26 26 26 27 28 27 26 27 29 31 31 29 26 21 19 18 17 15 14 13 13 13 12 12 10 9 10 12 14 15 15 15 18 21 22 23 23 22 23 22 20 18 17 18 19 19 18 18 17 16 16 17 18 19 19 17 17 17 18 17 17 18 18 18 21 24 25 25 24 25 28 29 29 30 30 31 32 33 34 35 36
21 21 22 23 24 25 25 26 26 25 23 24 27 30 30 31 30 25 19 16 16 15 13 13 12 10 10 10 8 7 10 12 13 13 14 15 18 20 20 21 21 20 21 23 22 21 20 20 20 19 18 17 16 15 14 15 17 18 18 17 18 18 19 20 20 22 22 22 24 26 26 26 24 24 27 29 29 30 30 30 31 33 35 37 39
19 19 21 21 23 24 23 23 23 22 20 21 25 28 29 31 33 30 24 18 15 15 13 12 11 9 8 9 10 11 12 11 12 14 15 14 16 20 20 19 19 20 22 23 22 21 22 23 22 20 18 17 16 15 14 15 17 18 18 19 20 20 22 23 24 27 27 25 26 27 25 24 24 25 28 29 29 30 30 31 33 36 38 40 40
18 19 20 21 21 22 21 21 21 20 19 20 22 25 27 30 31 31 25 19 16 15 13 12 11 10 8 8 10 13 15 13 14 17 17 14 15 18 18 18 19 20 22 22 20 19 20 21 21 20 19 18 17 16 15 16 18 18 18 19 20 21 24 25 27 28 27 26 26 25 23 24 26 26 28 28 29 30 31 32 36 38 38 39 39
16 18 20 20 20 21 22 22 20 19 19 19 20 22 23 26 28 28 23 18 16 15 13 12 11 10 9 9 11 14 16 15 15 17 17 15 15 15 15 16 18 20 20 19 19 20 20 20 19 19 18 18 18 18 19 19 19 19 18 19 20 22 23 24 25 26 25 23 23 23 24 25 26 26 28 28 28 31 33 34 36 37 36 36 38
16 17 20 21 21 21 22 22 20 19 17 17 19 20 21 23 25 24 20 16 15 14 12 11 10 11 12 12 13 14 14 13 14 17 17 16 16 14 12 14 16 17 18 18 18 20 19 18 18 18 17 18 19 19 20 20 20 20 18 17 17 21 23 20 20 24 26 24 23 23 24 25 24 26 28 28 29 31 34 35 35 34 34 37 40
17 17 18 20 20 20 21 21 20 19 18 17 17 18 21 23 24 21 18 16 15 14 12 11 11 13 14 14 14 14 13 13 15 17 16 16 16 14 11 12 14 15 16 17 17 17 16 16 16 16 17 19 21 21 20 20 20 20 21 21 20 21 21 19 19 24 26 26 24 22 22 24 24 24 26 28 28 31 33 33 33 32 33 37 41
17 17 17 18 18 18 19 20 20 19 19 17 16 17 20 21 22 20 17 16 15 14 12 11 12 12 12 13 13 13 13 15 16 16 15 15 15 14 12 12 14 15 15 15 16 15 14 15 15 15 17 18 20 20 21 22 22 22 24 27 25 21 20 21 23 23 19 20 21 20 20 23 24 23 24 22 19 23 30 33 32 31 32 37 41
Wind_Direction
241 251 264 273 283 282 277 281 294 306 316 321 320 314 305 308 319 318 320 319 317 322 324 325 324 323 329 335 328 317 314 314 314 309 306 303 288 289 298 302 304 287 260 241 234 229 222 224 228 232 228 220 218 223 223 221 218 215 216 217 219 222 223 225 226 227 228 229 231 232 234 235 236 236 234 233 234 233 233 234 238 242 246 250 254
244 245 264 274 274 272 277 283 290 298 296 307 316 311 309 319 324 314 320 319 313 321 325 322 320 325 341 340 331 325 324 318 311 299 295 294 279 286 299 305 307 294 265 251 246 241 234 230 230 233 234 229 223 223 225 227 226 220 219 221 223 225 227 229 229 231 233 234 234 234 236 238 240 242 241 241 240 241 241 241 242 245 249 254 258
246 229 247 266 267 263 269 276 274 282 293 295 294 299 308 316 315 309 315 315 313 324 323 315 315 331 340 336 330 327 327 320 311 298 289 291 295 291 298 304 303 299 283 263 256 251 245 239 235 233 234 234 228 227 227 228 229 228 226 226 229 229 227 228 229 231 233 235 235 235 237 237 240 243 244 245 246 247 247 247 247 247 249 252 257
235 230 240 258 265 266 265 268 266 270 282 270 270 291 296 298 296 294 302 309 311 315 310 304 317 338 331 330 333 325 324 322 313 310 307 294 288 270 274 290 291 300 301 285 271 264 258 252 245 240 236 233 229 230 230 228 228 227 230 234 234 231 226 225 228 231 231 233 236 237 239 239 241 243 245 247 249 251 252 253 252 251 251 251 255
216 226 241 255 260 267 265 261 263 259 264 265 270 282 284 289 285 278 294 313 307 305 303 305 328 343 327 328 328 319 321 316 308 319 327 303 288 276 268 270 259 284 301 302 290 273 267 263 257 246 237 234 234 234 233 232 229 223 229 236 236 234 231 229 230 233 234 236 238 241 242 243 244 245 247 248 250 252 254 257 257 256 256 255 256
205 220 240 253 255 261 259 256 259 253 259 265 264 273 281 287 284 284 299 308 302 305 309 316 332 334 323 322 319 318 315 308 318 330 326 316 314 316 297 273 244 258 277 290 297 288 280 270 259 249 239 237 240 242 240 236 232 226 231 237 236 235 237 235 233 235 238 239 241 243 244 246 247 248 250 251 252 254 254 257 259 260 260 259 258
204 220 240 254 257 257 255 249 245 247 261 261 250 264 278 272 277 287 292 300 305 307 310 319 327 322 318 315 316 319 309 310 334 324 317 328 325 317 311 305 288 275 266 274 285 282 284 285 267 253 242 240 243 247 247 240 231 227 235 241 239 237 240 240 237 236 239 241 244 245 245 247 248 249 251 253 255 256 257 257 259 261 263 263 261
215 232 244 252 256 256 259 248 234 240 254 259 253 262 277 268 267 284 293 309 309 305 309 313 317 316 313 311 322 322 311 322 331 322 344 347 328 329 340 333 319 320 316 289 284 278 281 297 287 264 245 239 238 240 243 239 229 228 238 246 245 242 243 241 238 239 241 243 246 247 246 248 249 249 249 252 254 256 258 258 258 259 261 262 263
223 239 245 245 249 250 255 250 245 252 253 258 258 253 266 268 266 286 302 310 300 302 308 310 316 314 307 311 327 320 312 334 334 331 347 334 329 351 6 4 349 344 340 323 310 299 303 318 304 282 263 250 246 240 233 233 232 232 243 252 254 253 252 252 250 248 247 246 247 247 247 248 249 248 248 249 252 254 256 257 258 258 258 260 263
220 237 244 238 240 241 239 237 243 252 250 259 268 267 268 275 285 294 299 296 296 306 313 320 321 307 303 312 327 317 318 343 342 332 323 328 354 334 41 31 2 4 2 352 359 9 356 349 326 286 271 259 251 237 220 224 229 232 243 254 261 262 262 264 262 254 247 244 245 246 247 248 249 250 249 249 250 252 253 255 257 257 257 258 261
205 226 240 225 227 233 229 223 230 241 243 255 273 284 281 301 310 299 294 287 289 304 313 314 304 295 303 310 325 314 322 338 339 339 320 341 15 319 6 60 15 7 9 360 10 23 29 22 5 331 273 245 232 231 237 237 233 231 240 253 263 263 259 257 253 250 247 245 247 250 250 249 250 252 252 252 252 253 254 255 257 258 257 257 258
203 221 225 214 224 230 223 218 229 241 241 251 263 287 340 326 304 297 295 285 277 283 289 296 293 294 293 284 226 265 310 339 312 315 307 304 33 349 349 44 34 18 17 9 11 18 23 23 23 47 54 50 81 61 19 281 250 249 254 260 265 264 261 258 255 254 255 254 253 253 253 251 250 251 252 254 255 255 256 256 257 258 259 258 258
220 228 213 211 223 219 214 211 216 214 187 234 277 351 354 312 295 288 279 276 272 260 256 296 291 277 255 229 181 195 205 238 260 256 308 309 26 21 0 22 29 20 26 29 25 27 29 30 28 34 38 32 54 72 66 84 200 276 282 270 265 265 267 267 265 263 262 261 258 257 255 253 252 250 251 253 254 255 255 256 257 258 259 260 260
223 223 210 208 218 205 196 187 181 175 167 203 240 306 281 284 283 269 252 252 265 270 283 289 273 255 276 272 193 183 235 263 261 264 302 332 355 48 30 28 36 19 16 37 41 41 37 34 30 25 31 33 31 60 99 103 85 350 316 280 263 265 271 273 272 269 266 265 264 262 260 258 256 253 253 254 254 255 255 255 255 256 258 259 259
211 219 213 205 208 197 180 168 165 166 174 193 187 244 259 250 249 255 261 242 223 215 291 288 289 300 328 295 249 193 229 259 238 225 252 344 326 55 40 24 40 29 17 34 36 39 43 37 35 34 34 42 42 48 89 96 61 350 325 295 287 278 271 268 268 271 273 273 270 266 264 263 261 259 258 259 259 258 256 256 256 257 258 258 257
206 206 199 195 194 187 175 164 163 162 164 181 220 237 230 225 228 226 260 265 226 175 163 275 318 332 288 261 267 244 208 221 193 191 278 260 160 84 51 21 45 31 12 32 31 27 44 42 37 39 36 41 49 57 82 85 46 9 346 319 309 297 277 260 256 259 269 275 272 266 265 265 266 265 262 261 262 263 261 260 257 256 258 259 257
202 196 191 190 184 177 171 167 167 166 176 200 220 224 222 216 208 206 238 281 278 205 164 202 286 320 305 291 268 271 338 226 146 237 290 264 160 97 54 66 61 37 2 17 28 19 40 51 43 45 45 45 54 63 78 87 80 39 1 355 354 322 288 262 256 255 255 258 265 268 267 266 266 267 266 263 262 263 264 263 260 255 254 255 256
199 195 191 182 175 175 174 176 178 177 190 208 211 214 221 212 199 214 225 262 292 288 244 190 138 308 298 319 239 300 349 346 342 246 287 291 274 172 179 140 34 327 155 9 41 39 24 41 41 41 50 49 59 74 84 92 99 80 32 26 30 23 357 282 265 264 264 264 267 272 275 273 269 266 267 264 260 260 261 262 261 258 255 254 255
198 191 185 177 176 179 180 185 190 194 199 202 213 221 213 194 199 214 193 182 243 274 264 198 135 179 233 182 156 358 352 341 325 276 235 285 308 260 199 132 71 269 250 333 186 104 17 2 10 1 47 52 50 67 98 104 83 49 45 37 33 35 35 15 306 286 284 282 278 278 280 281 278 275 273 268 260 258 259 259 259 259 258 256 256
192 184 180 181 182 183 185 190 198 210 213 203 217 229 202 163 191 181 154 179 212 264 290 295 257 177 152 199 167 83 325 356 355 328 290 259 226 240 247 79 43 260 313 332 314 47 330 243 327 319 283 274 344 323 102 126 118 65 25 19 22 21 20 16 353 325 312 310 302 292 285 283 283 280 278 274 267 263 262 262 261 260 261 260 261
185 182 182 186 188 189 188 192 204 216 219 213 216 218 199 189 196 178 179 192 191 234 282 303 296 199 122 172 265 79 284 223 206 267 308 310 265 241 278 292 271 234 192 300 309 342 305 249 283 286 266 266 258 250 258 200 154 164 305 343 357 350 343 337 328 323 316 312 308 304 296 289 287 283 279 276 272 270 268 267 265 262 260 260 263
186 187 190 193 194 196 193 201 216 222 220 218 213 203 196 200 205 201 200 192 183 207 228 260 295 333 112 156 187 223 267 273 252 232 78 299 286 291 279 275 300 352 329 297 312 329 306 297 298 278 266 277 272 260 256 238 199 213 265 309 330 330 325 312 307 309 307 305 302 301 299 294 291 287 284 279 275 272 270 268 267 266 263 260 259
191 193 197 198 195 197 204 211 216 215 215 213 210 206 201 198 198 198 199 197 194 199 218 233 244 282 239 181 199 238 227 295 299 323 332 288 288 292 296 322 341 333 314 302 288 284 278 275 278 271 266 273 276 275 270 263 249 247 261 283 299 309 309 303 299 295 295 297 296 296 296 294 292 290 288 286 282 278 275 272 269 268 267 264 261
195 198 201 201 195 199 210 213 206 203 207 206 205 212 212 196 187 194 199 195 199 200 209 227 212 227 240 204 213 260 235 251 286 294 291 300 320 315 310 323 318 300 304 301 276 267 271 275 278 271 260 265 279 286 279 275 271 263 260 272 287 295 296 293 288 284 285 287 288 292 294 293 292 289 288 288 287 285 283 280 277 274 271 268 265
196 202 203 200 196 201 206 205 200 198 201 201 199 205 213 201 187 194 202 195 202 209 209 229 223 228 263 254 245 271 265 246 269 277 277 274 268 275 288 297 295 292 294 288 280 279 279 278 279 277 270 268 280 286 279 277 279 273 261 266 285 292 292 289 281 276 279 279 279 283 287 292 294 292 291 291 292 291 290 288 286 283 280 276 273
198 203 204 199 195 196 199 199 197 195 195 196 196 197 200 202 197 199 206 205 211 220 221 235 238 236 264 278 269 273 281 280 270 272 279 277 260 263 282 291 290 289 286 279 275 273 275 271 259 254 252 254 266 276 276 278 282 281 277 279 286 287 285 283 279 280 281 277 274 274 276 283 287 291 295 295 298 298 297 295 293 291 289 285 282
200 203 205 203 197 195 195 195 193 190 191 193 193 194 195 199 203 207 214 213 214 228 234 236 244 248 250 262 274 280 288 290 282 282 289 298 298 297 299 295 290 291 294 293 285 280 285 283 268 251 234 235 250 257 265 274 279 283 286 286 284 281 278 277 278 282 286 282 274 269 269 272 277 283 288 293 299 302 303 303 300 297 294 291 289
203 202 204 204 200 197 195 194 191 187 187 190 191 193 194 199 204 209 219 221 218 227 238 241 241 246 247 250 261 274 285 286 282 284 286 286 284 285 285 284 289 296 300 302 300 297 297 298 298 290 259 244 253 254 257 268 273 275 278 280 278 278 279 279 279 279 282 284 280 272 268 267 269 273 278 284 290 295 300 303 303 302 301 298 295
202 197 199 201 200 198 195 194 191 187 186 187 191 193 194 201 208 211 220 226 225 227 236 245 248 251 256 255 254 263 272 273 274 276 277 280 280 279 279 277 280 288 295 302 300 300 305 307 305 303 297 289 282 273 267 270 274 272 272 275 276 276 276 277 279 278 277 280 282 279 272 267 267 270 275 280 285 290 293 296 298 300 300 299 298
197 190 190 194 194 192 193 195 191 189 189 187 189 194 196 204 211 215 222 228 231 233 237 244 251 256 263 266 266 267 267 266 271 278 281 283 283 284 286 286 284 286 294 303 299 299 307 308 304 304 306 304 296 285 278 275 275 275 273 274 274 274 274 272 271 273 274 278 280 279 274 269 267 269 272 277 282 287 289 291 293 294 294 295 295
192 183 182 186 188 187 191 194 192 192 192 188 189 194 197 202 210 216 222 225 229 236 239 242 247 249 255 260 261 262 267 270 273 280 282 280 280 283 290 295 293 291 296 301 297 299 305 306 304 304 302 300 295 287 282 279 277 275 272 272 272 272 273 274 274 276 279 282 282 281 277 275 273 273 275 280 284 288 290 291 291 289 288 287 287
188 182 181 185 187 187 188 190 191 192 192 191 192 194 197 200 207 215 220 220 224 231 237 243 247 248 249 253 254 255 259 264 269 276 277 272 269 272 283 290 289 288 293 295 290 294 300 303 302 301 301 300 296 288 285 283 280 277 272 270 272 273 273 274 278 280 281 282 281 281 281 279 278 277 280 285 289 292 293 292 290 287 285 282 281
185 182 183 186 188 188 189 189 191 191 191 192 192 193 195 198 205 215 222 221 221 226 232 239 246 249 248 246 250 254 259 264 265 266 267 265 264 268 274 279 280 279 280 283 284 287 293 298 300 300 302 302 297 289 287 284 282 280 276 272 272 272 272 272 274 275 275 277 278 279 280 279 277 278 281 287 291 294 295 293 289 286 284 281 279
186 185 185 187 190 190 190 191 193 195 195 193 192 192 192 195 203 212 218 220 221 226 230 233 237 241 243 245 249 252 257 259 258 256 257 260 267 274 274 272 274 275 270 271 275 280 286 292 294 295 298 300 298 293 289 286 284 282 279 277 276 273 273 274 275 276 276 276 275 277 279 278 277 279 282 287 289 291 294 294 290 286 284 282 280
189 187 187 189 189 189 191 193 194 198 199 195 193 192 190 193 203 210 212 214 218 224 227 230 232 234 236 242 249 254 254 253 253 251 251 256 265 271 272 271 271 273 272 271 274 278 284 288 289 291 295 297 297 297 294 288 287 284 281 281 279 277 277 276 277 279 279 278 279 279 279 278 278 281 283 285 286 287 292 294 292 290 288 285 285
192 190 189 188 187 188 191 192 194 198 200 198 196 195 191 192 200 209 212 211 214 221 228 230 229 230 235 241 247 253 255 255 253 249 248 256 265 268 271 272 271 274 278 279 281 283 286 289 288 290 293 293 294 297 297 293 289 286 285 283 280 278 278 278 280 280 278 279 281 280 279 279 280 281 281 280 280 284 289 291 291 291 289 287 288
197 192 188 186 186 187 189 191 194 198 199 197 197 198 194 193 199 206 210 212 214 219 226 231 231 231 237 242 249 252 254 255 254 253 256 261 265 268 272 273 274 279 281 282 285 288 288 288 288 290 293 293 294 295 296 297 295 291 288 284 280 279 280 282 282 281 279 281 280 279 279 281 282 284 283 280 281 285 286 286 287 288 286 285 286
198 193 189 187 186 187 188 191 194 197 199 199 200 201 197 194 198 204 208 213 215 217 223 230 231 233 237 243 250 253 254 255 254 253 257 261 265 268 271 275 278 282 285 287 290 292 290 287 288 293 296 297 298 296 296 297 297 295 294 289 284 284 286 287 286 283 282 283 281 279 278 280 282 283 282 280 280 282 283 282 283 283 283 283 283
199 195 192 188 186 188 189 192 195 196 198 202 205 206 200 194 198 204 207 211 215 217 223 229 232 233 237 242 248 251 252 253 254 256 259 262 266 269 271 275 278 281 287 290 292 293 293 289 289 291 294 296 296 294 295 297 294 292 294 293 291 294 294 291 287 286 287 286 284 282 279 279 279 279 278 277 278 281 282 281 281 280 280 280 280
202 197 192 188 187 189 190 191 192 193 197 202 206 208 203 197 198 203 206 209 214 218 222 229 234 236 239 245 249 251 248 247 250 254 258 260 263 270 274 276 278 280 283 285 287 290 291 291 290 290 293 295 294 293 295 296 293 293 295 295 295 297 296 292 288 289 290 287 284 283 282 281 280 280 281 281 281 282 282 281 280 279 278 278 279
205 199 194 190 187 187 188 190 192 194 198 202 206 208 205 200 199 203 206 208 213 218 222 229 234 237 242 248 253 254 253 251 251 254 258 258 262 272 280 281 281 281 281 282 284 287 290 291 290 291 294 295 295 296 296 295 294 296 297 297 297 296 295 293 290 289 289 287 284 284 284 282 281 280 280 280 279 279 280 280 279 279 279 279 279
203 199 195 194 190 186 186 189 191 195 200 204 208 210 207 202 201 202 204 208 212 217 222 229 237 241 244 246 251 256 255 251 251 257 264 266 268 277 283 282 279 277 275 277 281 285 288 289 289 293 295 293 294 297 297 297 297 297 298 300 299 297 297 296 292 289 289 288 287 287 286 284 283 282 280 280 280 280 280 280 279 278 278 278 277
200 198 196 195 191 187 186 188 191 195 200 205 210 211 208 205 204 204 204 205 208 215 222 229 237 243 246 247 251 250 244 245 251 255 260 266 273 283 288 286 281 275 270 269 274 281 285 286 289 291 292 292 294 296 296 299 301 303 304 303 299 298 298 296 293 291 291 292 292 291 288 285 285 284 282 282 282 281 279 277 276 275 274 274 274
197 196 195 194 190 188 189 191 194 197 201 206 211 212 210 208 206 207 207 205 205 212 219 226 235 242 244 246 245 237 242 260 265 261 265 276 281 284 288 288 282 274 269 266 267 272 275 279 285 287 287 291 295 295 297 304 307 307 305 301 297 297 296 292 290 290 292 296 297 294 288 286 287 285 283 282 281 279 278 276 276 276 275 276 276
196 194 192 191 190 190 191 192 195 199 203 209 214 216 215 212 210 211 215 216 212 213 219 226 233 238 236 236 240 247 260 269 267 265 272 276 274 276 280 281 278 274 271 269 268 269 268 269 276 282 284 288 292 294 301 310 310 306 304 301 299 297 293 290 289 290 293 297 295 290 285 284 284 282 281 282 281 280 279 279 281 282 281 279 279
197 193 192 191 190 190 190 189 194 200 205 212 219 221 220 218 216 218 223 226 221 219 223 229 235 236 232 239 251 259 264 263 260 269 273 265 264 271 271 272 275 276 275 274 272 270 266 263 265 272 278 283 285 290 298 306 306 302 300 299 297 295 292 290 290 290 290 289 284 280 278 279 281 281 281 284 285 283 283 284 284 284 282 281 279
199 196 196 195 192 189 189 189 193 202 209 216 222 224 224 223 222 221 223 226 226 223 222 226 234 233 227 233 243 251 261 262 258 270 276 267 264 269 267 268 272 272 272 276 275 270 265 262 263 270 279 282 283 288 295 302 301 297 294 293 292 292 292 291 290 288 286 284 280 276 275 281 286 286 286 288 289 287 287 287 286 284 283 281 280
200 198 199 198 194 193 192 191 196 204 213 219 220 219 221 223 222 220 220 222 223 221 219 222 225 218 214 216 220 235 253 257 256 271 282 273 260 260 262 264 265 266 270 276 278 276 271 269 271 276 282 284 286 289 294 299 298 295 293 291 291 291 291 291 290 289 289 289 285 281 283 289 292 291 290 291 291 290 289 287 285 285 283 280 279
202 200 200 199 197 195 193 193 197 204 214 221 219 215 216 218 216 214 214 215 215 212 209 209 209 214 229 237 235 240 250 251 259 278 286 274 258 255 258 261 263 267 272 276 279 281 280 280 282 285 290 296 300 298 297 297 296 293 285 279 284 291 292 290 290 291 292 292 289 288 289 291 294 294 293 293 291 288 287 285 284 285 284 283 284
213 208 205 204 200 196 197 198 200 207 215 219 216 212 211 212 212 208 205 206 205 200 196 198 206 222 239 245 245 249 253 257 271 282 280 267 257 255 260 266 267 270 274 280 286 291 295 295 292 293 299 305 306 303 297 293 291 286 272 263 270 284 286 284 286 291 292 291 290 292 292 291 294 295 295 296 292 286 284 284 286 285 284 287 290
221 219 216 212 202 194 196 201 204 209 214 215 213 209 206 208 212 208 201 201 199 192 190 195 205 218 230 238 242 249 261 270 277 276 264 253 252 257 263 267 271 275 281 288 293 297 300 297 292 293 299 302 301 298 293 289 287 285 274 265 264 268 271 278 286 292 293 290 292 298 299 296 297 298 297 297 293 288 287 288 289 288 287 291 295